Winston-Salem, NC

1:47 PM EDT on April 21, 2018 (GMT -0400)
Smith Reynolds

Weather History for KINT - November, 2012

Change the Weather History Date:

Friday, November 9, 2012

  Actual Average Record
Temperature  
Mean Temperature 50 °F -  
Max Temperature 64 °F 59 °F 81 °F (2005)
Min Temperature 37 °F 40 °F 19 °F (1976)
Degree Days  
Heating Degree Days 14    
Moisture  
Dew Point 27 °F    
Average Humidity 43    
Maximum Humidity 67    
Minimum Humidity 22    
Precipitation  
Precipitation 0.00 in - - ()
Sea Level Pressure  
Sea Level Pressure 30.22 in    
Wind  
Wind Speed 5 mph (NW)    
Max Wind Speed 10 mph    
Max Gust Speed -    
Visibility 10 miles    
Events      
Averages and records for this station are not official NWS values.
T = Trace of Precipitation, MM = Missing Value Source: NWS Daily Summary

Daily Weather History Graph

Daily Weather History Graph

Search for Another Location

Airport or City:

Astronomy

Nov. 09, 2012 Rise Set
Actual Time 6:52 AM EST 5:17 PM EST
Civil Twilight 6:24 AM EST 5:44 PM EST
Nautical Twilight 5:54 AM EST 6:14 PM EST
Astronomical Twilight 5:24 AM EST 6:44 PM EST
Moon 1:57 AM EST (11/9) 2:22 PM EST (11/9)
Length of Visible Light 11h 19m
Length of Day
10h 25m
Waning Crescent, 23% of the Moon is Illuminated
Nov 9
Waning Crescent
Nov 13
New
Nov 20
First Quarter
Nov 28
Full
Dec 6
Last Quarter

Hourly Weather History & Observations

Time (EST) Temp. Windchill Dew Point Humidity Pressure Visibility Wind Dir Wind Speed Gust Speed Precip Events Conditions
12:54 AM 45.0 °F 41.8 °F 23.0 °F 42% 30.16 in 10.0 mi NW 5.8 mph - N/A   Clear
1:54 AM 41.0 °F 36.4 °F 25.0 °F 53% 30.16 in 10.0 mi NW 6.9 mph - N/A   Clear
2:54 AM 43.0 °F 37.7 °F 25.0 °F 49% 30.17 in 10.0 mi NW 9.2 mph - N/A   Clear
3:54 AM 39.0 °F 34.8 °F 25.0 °F 57% 30.18 in 10.0 mi NW 5.8 mph - N/A   Clear
4:54 AM 39.9 °F 37.8 °F 26.1 °F 58% 30.19 in 10.0 mi NNW 3.5 mph - N/A   Clear
5:54 AM 37.9 °F 34.4 °F 26.1 °F 62% 30.21 in 10.0 mi NW 4.6 mph - N/A   Clear
6:54 AM 39.0 °F 36.8 °F 26.1 °F 60% 30.22 in 10.0 mi North 3.5 mph - N/A   Clear
7:54 AM 39.0 °F - 28.9 °F 67% 30.25 in 10.0 mi Calm Calm - N/A   Clear
8:54 AM 51.1 °F - 25.0 °F 36% 30.25 in 10.0 mi NW 6.9 mph - N/A   Clear
9:54 AM 55.0 °F - 26.1 °F 33% 30.26 in 10.0 mi NW 8.1 mph - N/A   Clear
10:54 AM 59.0 °F - 27.0 °F 29% 30.27 in 10.0 mi NNW 8.1 mph - N/A   Clear
11:54 AM 61.0 °F - 27.0 °F 27% 30.24 in 6.0 mi NW 10.4 mph - N/A   Haze
12:54 PM 62.1 °F - 27.0 °F 26% 30.22 in 8.0 mi WNW 6.9 mph - N/A   Clear
1:54 PM 64.0 °F - 26.1 °F 24% 30.20 in 6.0 mi WNW 6.9 mph - N/A   Haze
2:54 PM 64.0 °F - 27.0 °F 25% 30.19 in 7.0 mi Variable 3.5 mph - N/A   Clear
3:54 PM 64.9 °F - 26.1 °F 23% 30.19 in 10.0 mi Calm Calm - N/A   Clear
4:54 PM 64.0 °F - 24.1 °F 22% 30.19 in 10.0 mi Calm Calm - N/A   Clear
5:54 PM 55.9 °F - 30.0 °F 37% 30.21 in 10.0 mi Calm Calm - N/A   Clear
6:54 PM 52.0 °F - 30.0 °F 43% 30.22 in 10.0 mi Calm Calm - N/A   Clear
7:54 PM 48.9 °F - 28.9 °F 46% 30.24 in 10.0 mi Calm Calm - N/A   Clear
8:54 PM 48.0 °F - 30.9 °F 52% 30.24 in 10.0 mi Calm Calm - N/A   Clear
9:54 PM 46.0 °F - 30.9 °F 56% 30.25 in 10.0 mi Calm Calm - N/A   Clear
10:54 PM 45.0 °F - 30.9 °F 58% 30.25 in 10.0 mi Calm Calm - N/A   Clear
11:54 PM 45.0 °F - 30.9 °F 58% 30.26 in 10.0 mi Calm Calm - N/A   Clear